Location: Conjunto Santa Maria
(19.9513°S, 43.9599°W)
Time: 11:53:01
(UTC+00:00)

Cosmos 1184 Rocket - Pass Details

Date: 21 January 2021
Orbit: 404 x 416 km, 81.2° (Epoch: 03 March)

Event Time Altitude Azimuth Distance (km) Brightness Sun altitude
Rises 22:38:27 0° 174° (S) 2,353 6.8 -13.2°
Reaches altitude 10° 22:40:38 10° 163° (SSE) 1,482 5.7 -13.6°
Maximum altitude 22:43:33 32° 98° (E) 733 3.5 -14.2°
Enters shadow 22:44:09 29° 75° (ENE) 777 3.5 -14.4°
